Year,Month,Day,Hour,Minute,Value (Times are PST for temperature in C)
2013,12,14,09,16,7.70
2013,12,14,09,17,7.70
2013,12,14,09,18,7.70
2013,12,14,09,19,7.70
2013,12,14,09,20,7.70
2013,12,14,09,21,7.80
2013,12,14,09,22,7.80
2013,12,14,09,23,7.80
2013,12,14,09,24,7.80
2013,12,14,09,25,7.80
2013,12,14,09,26,7.80
2013,12,14,09,27,7.80
2013,12,14,09,28,7.80
2013,12,14,09,29,7.80
2013,12,14,09,30,7.80
2013,12,14,09,31,7.80
2013,12,14,09,32,7.80
2013,12,14,09,33,7.80
2013,12,14,09,34,7.80
2013,12,14,09,35,7.80
2013,12,14,09,36,7.80
2013,12,14,09,37,7.80
2013,12,14,09,38,7.80
2013,12,14,09,39,7.80
2013,12,14,09,40,7.80
2013,12,14,09,41,7.80
2013,12,14,09,42,7.80
2013,12,14,09,43,7.80
2013,12,14,09,44,7.80
2013,12,14,09,45,7.80
2013,12,14,09,46,7.80
2013,12,14,09,47,7.80
2013,12,14,09,48,7.80
2013,12,14,09,49,7.80
2013,12,14,09,50,7.80
2013,12,14,09,51,7.80
2013,12,14,09,52,7.80
2013,12,14,09,53,7.80
2013,12,14,09,54,7.80
2013,12,14,09,55,7.80
2013,12,14,09,56,7.80
2013,12,14,09,57,7.80
2013,12,14,09,58,7.80
2013,12,14,09,59,7.80
2013,12,14,10,00,7.80
2013,12,14,10,01,7.80
2013,12,14,10,02,7.80
2013,12,14,10,03,7.80
2013,12,14,10,04,7.80
2013,12,14,10,05,7.80
2013,12,14,10,06,7.80
2013,12,14,10,07,7.80
2013,12,14,10,08,7.80
2013,12,14,10,09,7.80
2013,12,14,10,10,7.80
2013,12,14,10,11,7.80
2013,12,14,10,12,7.80
2013,12,14,10,13,7.80
2013,12,14,10,14,7.80
2013,12,14,10,15,7.80
2013,12,14,10,16,7.80
2013,12,14,10,17,7.80
2013,12,14,10,18,7.80
2013,12,14,10,19,7.80
2013,12,14,10,20,7.80
2013,12,14,10,21,7.80
2013,12,14,10,22,7.80
2013,12,14,10,23,7.80
2013,12,14,10,24,7.80
2013,12,14,10,25,7.80
2013,12,14,10,26,7.80
2013,12,14,10,27,7.80
2013,12,14,10,28,7.80
2013,12,14,10,29,7.80
2013,12,14,10,30,7.80
2013,12,14,10,31,7.80
2013,12,14,10,32,7.80
2013,12,14,10,33,7.80
2013,12,14,10,34,7.80
2013,12,14,10,35,7.80
2013,12,14,10,36,7.80
2013,12,14,10,37,7.80
2013,12,14,10,38,7.90
2013,12,14,10,39,7.80
2013,12,14,10,40,7.80
2013,12,14,10,41,7.80
2013,12,14,10,42,7.90
2013,12,14,10,43,7.90
2013,12,14,10,44,7.80
2013,12,14,10,45,7.90
2013,12,14,10,46,7.90
2013,12,14,10,47,7.90
2013,12,14,10,48,7.90
2013,12,14,10,49,7.90
2013,12,14,10,50,7.90
2013,12,14,10,51,7.90
2013,12,14,10,52,7.90
2013,12,14,10,53,7.90
2013,12,14,10,54,7.90
2013,12,14,10,55,8.00
2013,12,14,10,56,8.00
2013,12,14,10,57,8.00
2013,12,14,10,58,8.00
2013,12,14,10,59,8.00
2013,12,14,11,00,8.10
2013,12,14,11,01,8.10
2013,12,14,11,02,8.10
2013,12,14,11,03,8.10
2013,12,14,11,04,8.10
2013,12,14,11,05,8.10
2013,12,14,11,06,8.20
2013,12,14,11,07,8.20
2013,12,14,11,08,8.20
2013,12,14,11,09,8.20
2013,12,14,11,10,8.20
2013,12,14,11,11,8.20
2013,12,14,11,12,8.20
2013,12,14,11,13,8.20
2013,12,14,11,14,8.20
2013,12,14,11,15,8.20
2013,12,14,11,16,8.30
2013,12,14,11,17,8.20
2013,12,14,11,18,8.20
2013,12,14,11,19,8.20
2013,12,14,11,20,8.10
2013,12,14,11,21,8.10
2013,12,14,11,22,8.10
2013,12,14,11,23,8.10
2013,12,14,11,24,8.10
2013,12,14,11,25,8.20
2013,12,14,11,26,8.20
2013,12,14,11,27,8.20
2013,12,14,11,28,8.20
2013,12,14,11,29,8.20
2013,12,14,11,30,8.20
2013,12,14,11,31,8.20
2013,12,14,11,32,8.20
2013,12,14,11,33,8.30
2013,12,14,11,34,8.30
2013,12,14,11,35,8.30
2013,12,14,11,36,8.30
2013,12,14,11,37,8.30
2013,12,14,11,38,8.30
2013,12,14,11,39,8.30
2013,12,14,11,40,8.30
2013,12,14,11,41,8.30
2013,12,14,11,42,8.30
2013,12,14,11,43,8.30
2013,12,14,11,44,8.30
2013,12,14,11,45,8.30
2013,12,14,11,46,8.20
2013,12,14,11,47,8.20
2013,12,14,11,48,8.20
2013,12,14,11,49,8.20
2013,12,14,11,50,8.20
2013,12,14,11,51,8.20
2013,12,14,11,52,8.20
2013,12,14,11,53,8.20
2013,12,14,11,54,8.30
2013,12,14,11,55,8.30
2013,12,14,11,56,8.30
2013,12,14,11,57,8.30
2013,12,14,11,58,8.40
2013,12,14,11,59,8.40
2013,12,14,12,00,8.40
2013,12,14,12,01,8.40
2013,12,14,12,02,8.50
2013,12,14,12,03,8.50
2013,12,14,12,04,8.50
2013,12,14,12,05,8.50
2013,12,14,12,06,8.50
2013,12,14,12,07,8.50
2013,12,14,12,08,8.50
2013,12,14,12,09,8.50
2013,12,14,12,10,8.50
2013,12,14,12,11,8.50
2013,12,14,12,12,8.50
2013,12,14,12,13,8.50
2013,12,14,12,14,8.50
2013,12,14,12,15,8.40
2013,12,14,12,16,8.40
2013,12,14,12,17,8.40
2013,12,14,12,18,8.30
2013,12,14,12,19,8.40
2013,12,14,12,20,8.40
2013,12,14,12,21,8.40
2013,12,14,12,22,8.40
2013,12,14,12,23,8.40
2013,12,14,12,24,8.40
2013,12,14,12,25,8.30
2013,12,14,12,26,8.30
2013,12,14,12,27,8.30
2013,12,14,12,28,8.20
2013,12,14,12,29,8.20
2013,12,14,12,30,8.10
2013,12,14,12,31,8.10
2013,12,14,12,32,8.10
2013,12,14,12,33,8.10
2013,12,14,12,34,8.10
2013,12,14,12,35,8.20
2013,12,14,12,36,8.20
2013,12,14,12,37,8.10
2013,12,14,12,38,8.10
2013,12,14,12,39,8.10
2013,12,14,12,40,8.10
2013,12,14,12,41,8.10
2013,12,14,12,42,8.10
2013,12,14,12,43,8.10
2013,12,14,12,44,8.10
2013,12,14,12,45,8.10
2013,12,14,12,46,8.20
2013,12,14,12,47,8.20
2013,12,14,12,48,8.20
2013,12,14,12,49,8.30
2013,12,14,12,50,8.30
2013,12,14,12,51,8.30
2013,12,14,12,52,8.30
2013,12,14,12,53,8.30
2013,12,14,12,54,8.30
2013,12,14,12,55,8.30
2013,12,14,12,56,8.20
2013,12,14,12,57,8.20
2013,12,14,12,58,8.20
2013,12,14,12,59,8.20
2013,12,14,13,00,8.20
2013,12,14,13,01,8.20
2013,12,14,13,02,8.20
2013,12,14,13,03,8.20
2013,12,14,13,04,8.20
2013,12,14,13,05,8.20
2013,12,14,13,06,8.20
2013,12,14,13,07,8.20
2013,12,14,13,08,8.20
2013,12,14,13,09,8.20
2013,12,14,13,10,8.20
2013,12,14,13,11,8.20
2013,12,14,13,12,8.20
2013,12,14,13,13,8.20
2013,12,14,13,14,8.20
2013,12,14,13,15,8.20
2013,12,14,13,16,8.20
2013,12,14,13,17,8.20
2013,12,14,13,18,8.20
2013,12,14,13,19,8.10
2013,12,14,13,20,8.10
2013,12,14,13,21,8.10
2013,12,14,13,22,8.10
2013,12,14,13,23,8.10
2013,12,14,13,24,8.10
2013,12,14,13,25,8.10
2013,12,14,13,26,8.10
2013,12,14,13,27,8.10
2013,12,14,13,28,8.20
2013,12,14,13,29,8.20
2013,12,14,13,30,8.10
2013,12,14,13,31,8.10
2013,12,14,13,32,8.10
2013,12,14,13,33,8.10
2013,12,14,13,34,8.10
2013,12,14,13,35,8.10
2013,12,14,13,36,8.00
2013,12,14,13,37,8.00
2013,12,14,13,38,8.00
2013,12,14,13,39,8.00
2013,12,14,13,40,8.00
2013,12,14,13,41,8.00
2013,12,14,13,42,8.00
2013,12,14,13,43,8.00
2013,12,14,13,44,8.10
2013,12,14,13,45,8.10
2013,12,14,13,46,8.10
2013,12,14,13,47,8.10
2013,12,14,13,48,8.10
2013,12,14,13,49,8.10
2013,12,14,13,50,8.10
2013,12,14,13,51,8.10
2013,12,14,13,52,8.10
2013,12,14,13,53,8.10
2013,12,14,13,54,8.10
2013,12,14,13,55,8.10
2013,12,14,13,56,8.10
2013,12,14,13,57,8.10
2013,12,14,13,58,8.10
2013,12,14,13,59,8.10
2013,12,14,14,00,8.10
2013,12,14,14,01,8.10
2013,12,14,14,02,8.10
2013,12,14,14,03,8.10
2013,12,14,14,04,8.10
2013,12,14,14,05,8.10
2013,12,14,14,06,8.10
2013,12,14,14,07,8.10
2013,12,14,14,08,8.10
2013,12,14,14,09,8.10
2013,12,14,14,10,8.10
2013,12,14,14,11,8.10
2013,12,14,14,12,8.10
2013,12,14,14,13,8.10
2013,12,14,14,14,8.10
2013,12,14,14,15,8.10
2013,12,14,14,16,8.10
2013,12,14,14,17,8.10
2013,12,14,14,18,8.10
2013,12,14,14,19,8.10
2013,12,14,14,20,8.10
2013,12,14,14,21,8.10
2013,12,14,14,22,8.10
2013,12,14,14,23,8.10
2013,12,14,14,24,8.10
2013,12,14,14,25,8.10
2013,12,14,14,26,8.10
2013,12,14,14,27,8.10
2013,12,14,14,28,8.10
2013,12,14,14,29,8.10
2013,12,14,14,30,8.10
2013,12,14,14,31,8.10
2013,12,14,14,32,8.10
2013,12,14,14,33,8.20
2013,12,14,14,34,8.20
2013,12,14,14,35,8.20
2013,12,14,14,36,8.20
2013,12,14,14,37,8.20
2013,12,14,14,38,8.20
2013,12,14,14,39,8.20
2013,12,14,14,40,8.20
2013,12,14,14,41,8.20
2013,12,14,14,42,8.20
2013,12,14,14,43,8.20
2013,12,14,14,44,8.20
2013,12,14,14,45,8.20
2013,12,14,14,46,8.20
2013,12,14,14,47,8.30
2013,12,14,14,48,8.30
2013,12,14,14,49,8.30
2013,12,14,14,50,8.30
2013,12,14,14,51,8.20
2013,12,14,14,52,8.20
2013,12,14,14,53,8.20
2013,12,14,14,54,8.30
2013,12,14,14,55,8.20
2013,12,14,14,56,8.30
2013,12,14,14,57,8.30
2013,12,14,14,58,8.30
2013,12,14,14,59,8.30
2013,12,14,15,00,8.30
2013,12,14,15,01,8.30
2013,12,14,15,02,8.30
2013,12,14,15,03,8.30
2013,12,14,15,04,8.30
2013,12,14,15,05,8.30
2013,12,14,15,06,8.30
2013,12,14,15,07,8.30
2013,12,14,15,08,8.30
2013,12,14,15,09,8.20
2013,12,14,15,10,8.20
2013,12,14,15,11,8.20
2013,12,14,15,12,8.20
2013,12,14,15,13,8.10
2013,12,14,15,14,8.10
2013,12,14,15,15,8.10
2013,12,14,15,16,8.10
2013,12,14,15,17,8.00
2013,12,14,15,18,8.00
2013,12,14,15,19,8.00
2013,12,14,15,20,8.00
2013,12,14,15,21,7.90
2013,12,14,15,22,7.90
2013,12,14,15,23,7.90
2013,12,14,15,24,7.90
2013,12,14,15,25,7.90
2013,12,14,15,26,7.90
2013,12,14,15,27,7.90
2013,12,14,15,28,7.90
2013,12,14,15,29,7.90
2013,12,14,15,30,7.90
2013,12,14,15,31,7.90
2013,12,14,15,32,7.80
2013,12,14,15,33,7.80
2013,12,14,15,34,7.80
2013,12,14,15,35,7.80
2013,12,14,15,36,7.80
2013,12,14,15,37,7.80
2013,12,14,15,38,7.80
2013,12,14,15,39,7.80
2013,12,14,15,40,7.80
2013,12,14,15,41,7.80
2013,12,14,15,42,7.80
2013,12,14,15,43,7.80
2013,12,14,15,44,7.80
2013,12,14,15,45,7.80
2013,12,14,15,46,7.80
2013,12,14,15,47,7.80
2013,12,14,15,48,7.80
2013,12,14,15,49,7.80
2013,12,14,15,50,7.80
2013,12,14,15,51,7.80
2013,12,14,15,52,7.80
2013,12,14,15,53,7.80
2013,12,14,15,54,7.80
2013,12,14,15,55,7.80
2013,12,14,15,56,7.80
2013,12,14,15,57,7.80
2013,12,14,15,58,7.80
2013,12,14,15,59,7.80
2013,12,14,16,00,7.80
2013,12,14,16,01,7.80
2013,12,14,16,02,7.80
2013,12,14,16,03,7.80
2013,12,14,16,04,7.80
2013,12,14,16,05,7.80
2013,12,14,16,06,7.70
2013,12,14,16,07,7.70
2013,12,14,16,08,7.70
2013,12,14,16,09,7.70
2013,12,14,16,10,7.70
2013,12,14,16,11,7.70
2013,12,14,16,12,7.70
2013,12,14,16,13,7.70
2013,12,14,16,14,7.70
2013,12,14,16,15,7.70
2013,12,14,16,16,7.70
2013,12,14,16,17,7.70
2013,12,14,16,18,7.70
2013,12,14,16,19,7.70
2013,12,14,16,20,7.80
2013,12,14,16,21,7.80
2013,12,14,16,22,7.80
2013,12,14,16,23,7.80
2013,12,14,16,24,7.80
2013,12,14,16,25,7.80
2013,12,14,16,26,7.80
2013,12,14,16,27,7.70
2013,12,14,16,28,7.70
2013,12,14,16,29,7.70
2013,12,14,16,30,7.70
2013,12,14,16,31,7.70
2013,12,14,16,32,7.70
2013,12,14,16,33,7.70
2013,12,14,16,34,7.70
2013,12,14,16,35,7.70
2013,12,14,16,36,7.70
2013,12,14,16,37,7.70
2013,12,14,16,38,7.70
2013,12,14,16,39,7.70
2013,12,14,16,40,7.70
2013,12,14,16,41,7.70
2013,12,14,16,42,7.70
2013,12,14,16,43,7.70
2013,12,14,16,44,7.70
2013,12,14,16,45,7.70
2013,12,14,16,46,7.70
2013,12,14,16,47,7.70
2013,12,14,16,48,7.80
2013,12,14,16,49,7.80
2013,12,14,16,50,7.80
2013,12,14,16,51,7.80
2013,12,14,16,52,7.70
2013,12,14,16,53,7.70
2013,12,14,16,54,7.70
2013,12,14,16,55,7.70
2013,12,14,16,56,7.70
2013,12,14,16,57,7.70
2013,12,14,16,58,7.70
2013,12,14,16,59,7.70
2013,12,14,17,00,7.70
2013,12,14,17,01,7.70
2013,12,14,17,02,7.70
2013,12,14,17,03,7.70
2013,12,14,17,04,7.70
2013,12,14,17,05,7.80
2013,12,14,17,06,7.70
2013,12,14,17,07,7.70
2013,12,14,17,08,7.70
2013,12,14,17,09,7.70
2013,12,14,17,10,7.70
2013,12,14,17,11,7.70
2013,12,14,17,12,7.70
2013,12,14,17,13,7.80
2013,12,14,17,14,7.80
2013,12,14,17,15,7.80
2013,12,14,17,16,7.80
2013,12,14,17,17,7.80
2013,12,14,17,18,7.80
2013,12,14,17,19,7.80
2013,12,14,17,20,7.80
2013,12,14,17,21,7.80
2013,12,14,17,22,7.80
2013,12,14,17,23,7.80
2013,12,14,17,24,7.80
2013,12,14,17,25,7.80
2013,12,14,17,26,7.80
2013,12,14,17,27,7.80
2013,12,14,17,28,7.80
2013,12,14,17,29,7.80
2013,12,14,17,30,7.80
2013,12,14,17,31,7.80
2013,12,14,17,32,7.80
2013,12,14,17,33,7.80
2013,12,14,17,34,7.80
2013,12,14,17,35,7.80
2013,12,14,17,36,7.80
2013,12,14,17,37,7.80
2013,12,14,17,38,7.80
2013,12,14,17,39,7.80
2013,12,14,17,40,7.80
2013,12,14,17,41,7.80
2013,12,14,17,42,7.80
2013,12,14,17,43,7.80
2013,12,14,17,44,7.80
2013,12,14,17,45,7.80
2013,12,14,17,46,7.80
2013,12,14,17,47,7.80
2013,12,14,17,48,7.80
2013,12,14,17,49,7.80
2013,12,14,17,50,7.80
2013,12,14,17,51,7.80
2013,12,14,17,52,7.90
2013,12,14,17,53,7.90
2013,12,14,17,54,7.90
2013,12,14,17,55,7.90
2013,12,14,17,56,7.90
2013,12,14,17,57,7.90
2013,12,14,17,58,7.90
2013,12,14,17,59,7.90
2013,12,14,18,00,7.90
2013,12,14,18,01,7.90
2013,12,14,18,02,7.90
2013,12,14,18,03,7.90
2013,12,14,18,04,7.90
2013,12,14,18,05,7.90
2013,12,14,18,06,7.90
2013,12,14,18,07,7.90
2013,12,14,18,08,7.90
2013,12,14,18,09,8.00
2013,12,14,18,10,8.00
2013,12,14,18,11,8.00
2013,12,14,18,12,8.00
2013,12,14,18,13,8.00
2013,12,14,18,14,8.00
2013,12,14,18,15,8.00
2013,12,14,18,16,8.00
2013,12,14,18,17,8.10
2013,12,14,18,18,8.10
2013,12,14,18,19,8.10
2013,12,14,18,20,8.00
2013,12,14,18,21,8.10
2013,12,14,18,22,8.10
2013,12,14,18,23,8.10
2013,12,14,18,24,8.10
2013,12,14,18,25,8.10
2013,12,14,18,26,8.10
2013,12,14,18,27,8.10
2013,12,14,18,28,8.10
2013,12,14,18,29,8.10
2013,12,14,18,30,8.10
2013,12,14,18,31,8.10
2013,12,14,18,32,8.10
2013,12,14,18,33,8.10
2013,12,14,18,34,8.10
2013,12,14,18,35,8.10
2013,12,14,18,36,8.10
2013,12,14,18,37,8.10
2013,12,14,18,38,8.10
2013,12,14,18,39,8.10
2013,12,14,18,40,8.10
2013,12,14,18,41,8.10
2013,12,14,18,42,8.10
2013,12,14,18,43,8.10
2013,12,14,18,44,8.10
2013,12,14,18,45,8.20
2013,12,14,18,46,8.10
2013,12,14,18,47,8.20
2013,12,14,18,48,8.10
2013,12,14,18,49,8.10
2013,12,14,18,50,8.20
2013,12,14,18,51,8.20
2013,12,14,18,52,8.20
2013,12,14,18,53,8.20
2013,12,14,18,54,8.20
2013,12,14,18,55,8.20
2013,12,14,18,56,8.20
2013,12,14,18,57,8.20
2013,12,14,18,58,8.20
2013,12,14,18,59,8.20
2013,12,14,19,00,8.20
2013,12,14,19,01,8.20
2013,12,14,19,02,8.20
2013,12,14,19,03,8.20
2013,12,14,19,04,8.20
2013,12,14,19,05,8.20
2013,12,14,19,06,8.30
2013,12,14,19,07,8.30
2013,12,14,19,08,8.30
2013,12,14,19,09,8.30
2013,12,14,19,10,8.30
2013,12,14,19,11,8.30
2013,12,14,19,12,8.30
2013,12,14,19,13,8.30
2013,12,14,19,14,8.20
2013,12,14,19,15,8.20
2013,12,14,19,16,8.20
2013,12,14,19,17,8.20
2013,12,14,19,18,8.20
2013,12,14,19,19,8.20
2013,12,14,19,20,8.20
2013,12,14,19,21,8.20
2013,12,14,19,22,8.20
2013,12,14,19,23,8.20
2013,12,14,19,24,8.20
2013,12,14,19,25,8.20
2013,12,14,19,26,8.20
2013,12,14,19,27,8.20
2013,12,14,19,28,8.20
2013,12,14,19,29,8.20
2013,12,14,19,30,8.20
2013,12,14,19,31,8.20
2013,12,14,19,32,8.20
2013,12,14,19,33,8.20
2013,12,14,19,34,8.20
2013,12,14,19,35,8.20
2013,12,14,19,36,8.20
2013,12,14,19,37,8.20
2013,12,14,19,38,8.20
2013,12,14,19,39,8.20
2013,12,14,19,40,8.20
2013,12,14,19,41,8.20
2013,12,14,19,42,8.20
2013,12,14,19,43,8.20
2013,12,14,19,44,8.20
2013,12,14,19,45,8.20
2013,12,14,19,46,8.20
2013,12,14,19,47,8.20
2013,12,14,19,48,8.20
2013,12,14,19,49,8.20
2013,12,14,19,50,8.10
2013,12,14,19,51,8.10
2013,12,14,19,52,8.10
2013,12,14,19,53,8.10
2013,12,14,19,54,8.10
2013,12,14,19,55,8.10
2013,12,14,19,56,8.10
2013,12,14,19,57,8.10
2013,12,14,19,58,8.10
2013,12,14,19,59,8.10
2013,12,14,20,00,8.10
2013,12,14,20,01,8.10
2013,12,14,20,02,8.00
2013,12,14,20,03,8.00
2013,12,14,20,04,8.00
2013,12,14,20,05,8.00
2013,12,14,20,06,8.10
2013,12,14,20,07,8.10
2013,12,14,20,08,8.00
2013,12,14,20,09,8.00
2013,12,14,20,10,8.00
2013,12,14,20,11,8.00
2013,12,14,20,12,8.00
2013,12,14,20,13,8.10
2013,12,14,20,14,8.10
2013,12,14,20,15,8.10
2013,12,14,20,16,8.10
2013,12,14,20,17,8.10
2013,12,14,20,18,8.10
2013,12,14,20,19,8.10
2013,12,14,20,20,8.10
2013,12,14,20,21,8.10
2013,12,14,20,22,8.10
2013,12,14,20,23,8.10
2013,12,14,20,24,8.10
2013,12,14,20,25,8.10
2013,12,14,20,26,8.10
2013,12,14,20,27,8.10
2013,12,14,20,28,8.10
2013,12,14,20,29,8.10
2013,12,14,20,30,8.10
2013,12,14,20,31,8.10
2013,12,14,20,32,8.20
2013,12,14,20,33,8.20
2013,12,14,20,34,8.20
2013,12,14,20,35,8.20
2013,12,14,20,36,8.20
2013,12,14,20,37,8.20
2013,12,14,20,38,8.20
2013,12,14,20,39,8.20
2013,12,14,20,40,8.20
2013,12,14,20,41,8.20
2013,12,14,20,42,8.20
2013,12,14,20,43,8.20
2013,12,14,20,44,8.20
2013,12,14,20,45,8.20
2013,12,14,20,46,8.20
2013,12,14,20,47,8.20
2013,12,14,20,48,8.20
2013,12,14,20,49,8.20
2013,12,14,20,50,8.20
2013,12,14,20,51,8.20
2013,12,14,20,52,8.20
2013,12,14,20,53,8.20
2013,12,14,20,54,8.20
2013,12,14,20,55,8.20
2013,12,14,20,56,8.20
2013,12,14,20,57,8.20
2013,12,14,20,58,8.20
2013,12,14,20,59,8.20
2013,12,14,21,00,8.20
2013,12,14,21,01,8.20
2013,12,14,21,02,8.20
2013,12,14,21,03,8.20
2013,12,14,21,04,8.20
2013,12,14,21,05,8.20
2013,12,14,21,06,8.20
2013,12,14,21,07,8.20
2013,12,14,21,08,8.20
2013,12,14,21,09,8.20
2013,12,14,21,10,8.20
2013,12,14,21,11,8.20
2013,12,14,21,12,8.20
2013,12,14,21,13,8.20
2013,12,14,21,14,8.20
2013,12,14,21,15,8.20
2013,12,14,21,16,8.20
2013,12,14,21,17,8.20
2013,12,14,21,18,8.20
2013,12,14,21,19,8.20
2013,12,14,21,20,8.20
2013,12,14,21,21,8.20
2013,12,14,21,22,8.20
2013,12,14,21,23,8.20
2013,12,14,21,24,8.20
2013,12,14,21,25,8.20
2013,12,14,21,26,8.20
2013,12,14,21,27,8.20
2013,12,14,21,28,8.20
2013,12,14,21,29,8.20
2013,12,14,21,30,8.20
2013,12,14,21,31,8.20
2013,12,14,21,32,8.20
2013,12,14,21,33,8.20
2013,12,14,21,34,8.20
2013,12,14,21,35,8.20
2013,12,14,21,36,8.20
2013,12,14,21,37,8.20
2013,12,14,21,38,8.20
2013,12,14,21,39,8.20
2013,12,14,21,40,8.20
2013,12,14,21,41,8.20
2013,12,14,21,42,8.20
2013,12,14,21,43,8.30
2013,12,14,21,44,8.30
2013,12,14,21,45,8.20
2013,12,14,21,46,8.30
2013,12,14,21,47,8.30
2013,12,14,21,48,8.30
2013,12,14,21,49,8.30
2013,12,14,21,50,8.20
2013,12,14,21,51,8.20
2013,12,14,21,52,8.20
2013,12,14,21,53,8.20
2013,12,14,21,54,8.20
2013,12,14,21,55,8.20
2013,12,14,21,56,8.20
2013,12,14,21,57,8.20
2013,12,14,21,58,8.20
2013,12,14,21,59,8.20
2013,12,14,22,00,8.20
2013,12,14,22,01,8.20
2013,12,14,22,02,8.20
2013,12,14,22,03,8.10
2013,12,14,22,04,8.10
2013,12,14,22,05,8.10
2013,12,14,22,06,8.10
2013,12,14,22,07,8.10
2013,12,14,22,08,8.10
2013,12,14,22,09,8.10
2013,12,14,22,10,8.10
2013,12,14,22,11,8.10
2013,12,14,22,12,8.10
2013,12,14,22,13,8.10
2013,12,14,22,14,8.10
2013,12,14,22,15,8.10
2013,12,14,22,16,8.10
2013,12,14,22,17,8.10
2013,12,14,22,18,8.10
2013,12,14,22,19,8.10
2013,12,14,22,20,8.10
2013,12,14,22,21,8.00
2013,12,14,22,22,8.00
2013,12,14,22,23,8.00
2013,12,14,22,24,8.00
2013,12,14,22,25,8.00
2013,12,14,22,26,8.00
2013,12,14,22,27,8.00
2013,12,14,22,28,8.00
2013,12,14,22,29,8.00
2013,12,14,22,30,8.00
2013,12,14,22,31,8.00
2013,12,14,22,32,8.00
2013,12,14,22,33,8.00
2013,12,14,22,34,8.00
2013,12,14,22,35,8.00
2013,12,14,22,36,8.00
2013,12,14,22,37,8.00
2013,12,14,22,38,8.00
2013,12,14,22,39,8.00
2013,12,14,22,40,8.00
2013,12,14,22,41,8.00
2013,12,14,22,42,8.00
2013,12,14,22,43,8.00
2013,12,14,22,44,8.00
2013,12,14,22,45,8.00
2013,12,14,22,46,8.00
2013,12,14,22,47,8.00
2013,12,14,22,48,8.00
2013,12,14,22,49,8.10
2013,12,14,22,50,8.10
2013,12,14,22,51,8.10
2013,12,14,22,52,8.10
2013,12,14,22,53,8.10
2013,12,14,22,54,8.10
2013,12,14,22,55,8.10
2013,12,14,22,56,8.10
2013,12,14,22,57,8.10
2013,12,14,22,58,8.10
2013,12,14,22,59,8.10
2013,12,14,23,00,8.10
2013,12,14,23,01,8.10
2013,12,14,23,02,8.10
2013,12,14,23,03,8.10
2013,12,14,23,04,8.10
2013,12,14,23,05,8.10
2013,12,14,23,06,8.10
2013,12,14,23,07,8.10
2013,12,14,23,08,8.10
2013,12,14,23,09,8.10
2013,12,14,23,10,8.10
2013,12,14,23,11,8.20
2013,12,14,23,12,8.20
2013,12,14,23,13,8.20
2013,12,14,23,14,8.20
2013,12,14,23,15,8.20
2013,12,14,23,16,8.20
2013,12,14,23,17,8.20
2013,12,14,23,18,8.20
2013,12,14,23,19,8.20
2013,12,14,23,20,8.20
2013,12,14,23,21,8.20
2013,12,14,23,22,8.20
2013,12,14,23,23,8.20
2013,12,14,23,24,8.20
2013,12,14,23,25,8.20
2013,12,14,23,26,8.20
2013,12,14,23,27,8.20
2013,12,14,23,28,8.20
2013,12,14,23,29,8.20
2013,12,14,23,30,8.20
2013,12,14,23,31,8.20
2013,12,14,23,32,8.20
2013,12,14,23,33,8.20
2013,12,14,23,34,8.10
2013,12,14,23,35,8.10
2013,12,14,23,36,8.20
2013,12,14,23,37,8.10
2013,12,14,23,38,8.20
2013,12,14,23,39,8.20
2013,12,14,23,40,8.20
2013,12,14,23,41,8.20
2013,12,14,23,42,8.10
2013,12,14,23,43,8.20
2013,12,14,23,44,8.20
2013,12,14,23,45,8.20
2013,12,14,23,46,8.20
2013,12,14,23,47,8.20
2013,12,14,23,48,8.20
2013,12,14,23,49,8.20
2013,12,14,23,50,8.20
2013,12,14,23,51,8.20
2013,12,14,23,52,8.20
2013,12,14,23,53,8.20
2013,12,14,23,54,8.10
2013,12,14,23,55,8.20
2013,12,14,23,56,8.20
2013,12,14,23,57,8.20
2013,12,14,23,58,8.20
2013,12,14,23,59,8.20
